Theta_e
324 327 328 329 329 330 331 332 331 331 332 332 333 334 335 335 334 332 333 336 335 334 334 333 332 333 333 331 332 333 331 332 333 334 336 336 338 339 340 340 337 337 340 341 337 340 337 337 337 337 336 335 335 334 334 334 333 333 333 331 331 330 329 332 333 330 327 324 326 327 328 329 330 331 332 332 333 335 335 334 334 334 334 334 333
327 327 328 329 329 330 330 330 331 329 331 331 332 333 334 334 333 331 331 333 334 334 334 334 333 332 331 331 332 333 332 331 332 334 333 335 336 336 336 336 339 337 338 337 336 335 334 334 334 335 334 333 333 333 333 335 332 332 331 330 331 329 329 332 332 329 323 322 322 322 322 325 327 331 331 332 334 335 334 333 332 332 332 333 333
326 327 327 328 329 329 329 329 329 331 331 332 332 333 333 332 331 331 331 331 332 333 333 331 331 332 331 331 331 329 332 333 333 336 336 333 333 335 337 336 334 334 334 335 334 334 334 333 333 332 332 332 330 330 330 329 329 328 328 328 327 329 329 332 331 331 325 324 323 318 316 319 320 323 326 328 329 331 332 332 333 332 333 334 334
325 325 326 328 329 329 329 329 329 330 330 331 332 333 333 332 332 332 331 330 331 333 333 334 335 335 335 335 334 333 332 335 334 334 334 335 334 334 333 332 332 331 331 331 331 330 330 329 329 329 328 329 328 327 326 326 326 326 326 327 327 324 325 326 330 330 328 326 318 318 319 318 314 316 322 326 327 329 330 332 332 333 332 332 330
325 326 326 327 328 329 329 330 330 329 330 330 331 332 333 332 332 331 331 330 331 334 333 334 334 332 332 332 332 331 331 331 330 330 332 333 330 330 330 330 330 329 328 328 330 328 327 326 326 326 326 326 326 325 324 324 324 324 325 324 324 322 322 322 325 327 325 331 325 321 319 317 318 321 323 322 327 326 326 327 331 333 333 332 331
327 326 326 327 329 329 329 329 329 329 329 331 332 332 333 332 331 330 331 331 332 332 333 333 332 329 328 326 325 325 324 325 326 329 330 328 327 328 328 329 328 326 326 326 327 327 325 324 324 324 323 323 324 322 322 322 322 322 323 323 323 323 322 320 319 322 324 326 326 327 326 320 319 322 323 317 325 326 325 326 327 329 332 332 331
327 327 327 327 328 329 328 328 328 328 330 332 332 332 332 332 330 330 331 331 332 333 333 332 330 329 329 328 327 325 324 326 331 332 329 328 328 327 326 326 325 324 324 324 323 324 323 323 322 322 321 321 323 320 319 319 321 321 323 322 322 322 321 317 317 317 319 321 322 322 323 325 324 321 317 318 314 320 323 324 324 325 325 328 331
326 326 327 328 328 328 328 328 328 328 330 332 331 331 332 331 330 332 331 331 331 331 331 331 330 330 328 327 327 326 327 328 331 330 329 328 326 325 325 324 324 323 323 323 322 322 322 321 320 320 319 320 321 318 318 319 320 319 322 321 320 319 318 316 315 316 315 315 319 318 319 319 320 319 319 316 315 312 314 319 321 322 323 325 328
326 326 326 327 327 328 328 328 329 330 331 331 331 331 331 332 332 331 329 329 330 332 331 331 331 330 328 327 326 327 330 330 330 329 327 327 325 325 324 324 323 322 322 322 321 321 322 320 319 318 318 319 320 318 317 317 316 317 318 316 315 315 316 317 315 314 314 313 314 314 315 315 316 316 317 316 314 311 312 313 314 318 319 321 321
326 327 326 327 327 327 328 329 330 330 330 331 332 332 332 332 331 329 328 329 329 330 330 329 329 329 328 328 327 328 330 329 328 326 325 324 322 322 321 322 322 320 320 321 321 321 319 320 318 317 317 318 319 315 316 315 315 317 316 315 314 313 314 314 314 314 313 313 313 313 312 312 312 313 313 314 314 313 310 310 312 312 311 314 318
325 326 327 328 328 328 329 329 330 330 330 331 331 331 331 331 329 328 328 329 329 329 329 329 329 330 329 330 329 329 328 327 325 323 323 323 322 322 320 319 319 319 319 319 318 318 318 319 317 317 317 318 316 315 314 314 314 315 315 314 313 312 312 313 313 313 312 312 312 312 311 311 311 311 311 312 312 310 309 309 310 311 311 311 315
325 326 326 327 327 328 329 329 329 329 330 330 330 330 330 329 328 328 329 330 330 330 330 329 328 327 327 326 326 326 326 324 322 321 322 322 321 320 320 318 317 317 318 317 315 316 317 315 316 314 315 314 313 314 314 314 315 315 313 313 311 311 312 313 311 311 311 312 311 311 311 312 314 314 313 312 311 310 310 309 309 311 311 311 314
325 325 326 326 326 327 328 328 328 328 328 329 329 328 328 329 328 328 328 327 326 326 325 325 325 324 325 324 324 324 323 322 321 321 321 320 319 318 318 316 315 314 314 314 314 314 315 313 313 312 313 314 314 314 314 314 313 313 312 311 310 310 310 311 310 311 311 310 310 311 312 313 314 315 313 311 310 310 310 307 308 310 307 308 311
325 325 325 325 326 327 328 328 328 328 328 328 328 329 329 329 327 325 324 324 323 323 323 323 324 324 323 322 321 321 320 320 320 320 319 319 319 317 316 315 314 313 313 312 313 314 313 314 313 313 313 313 314 314 313 314 313 312 310 309 309 310 311 311 310 311 310 310 311 309 310 311 310 311 310 310 308 307 306 305 304 305 306 305 307
325 325 325 326 327 327 327 327 327 328 327 327 328 328 326 324 324 322 322 322 321 321 321 321 322 322 321 321 320 319 318 318 319 319 318 317 318 317 316 314 313 313 312 312 314 312 313 313 313 311 312 311 312 312 312 311 311 311 310 309 310 310 310 310 309 310 311 310 309 309 309 307 308 308 308 308 308 306 304 303 302 299 299 301 302
324 324 325 326 327 327 327 327 327 327 327 327 326 324 323 322 322 321 320 319 319 319 318 318 318 319 319 319 319 319 319 318 318 318 317 317 316 316 315 314 313 313 313 311 312 312 312 312 312 312 311 311 312 311 310 310 309 309 307 307 307 312 309 308 308 309 308 308 308 308 306 305 306 306 306 306 306 305 303 302 301 300 297 295 298
324 324 325 325 326 327 327 326 326 326 326 326 324 323 322 321 319 318 318 318 317 317 317 317 317 318 318 318 317 316 316 316 316 316 316 316 315 314 313 313 313 312 314 313 311 311 312 311 310 310 309 310 310 310 309 309 308 307 307 306 306 308 309 308 308 307 307 306 307 306 305 304 304 305 304 305 304 303 302 301 301 300 299 297 295
324 325 325 326 326 326 326 326 325 325 325 324 323 323 321 319 318 317 316 316 316 316 316 316 316 316 316 316 316 316 316 315 315 315 315 315 314 314 313 313 312 313 313 314 311 310 309 311 307 307 308 308 308 309 309 308 308 307 307 306 307 307 307 307 308 307 305 306 306 304 304 302 303 303 303 303 302 302 301 301 301 301 301 297 296
323 323 324 324 325 325 325 325 325 325 324 323 323 321 319 318 318 317 316 316 316 316 315 316 316 316 316 315 315 315 315 315 315 316 315 314 312 311 311 310 310 312 312 309 308 307 306 306 305 305 305 306 306 307 308 307 307 306 307 305 306 305 305 304 305 305 305 304 303 302 302 301 301 301 301 302 302 301 300 300 300 301 300 300 297
323 323 323 324 325 325 324 324 323 323 322 322 321 319 318 317 316 316 316 315 315 315 315 314 315 315 315 315 314 314 314 314 314 313 313 312 312 311 311 310 310 311 308 307 305 305 304 303 303 303 303 304 304 305 306 306 306 306 305 305 304 304 303 303 302 303 304 303 302 301 301 300 301 301 300 301 300 301 300 299 299 299 299 299 299
322 322 323 324 324 324 324 324 323 322 322 321 319 317 317 316 315 315 314 313 313 314 313 313 314 313 314 312 312 313 312 313 312 312 311 311 311 311 310 310 309 307 307 306 305 304 303 303 302 303 302 302 303 303 304 305 305 304 305 304 304 303 302 302 302 301 302 301 301 300 300 301 301 300 299 299 299 299 299 299 299 298 297 298 298
322 323 323 323 323 323 322 322 321 321 320 318 317 317 315 315 315 314 314 313 313 313 313 313 313 312 311 311 311 312 312 312 311 311 311 310 310 309 309 308 306 306 305 304 303 303 302 302 301 301 301 301 302 302 303 303 304 303 303 305 303 302 301 301 301 300 300 301 300 299 299 299 300 299 298 298 298 298 298 297 297 297 297 297 299
322 323 323 322 322 321 320 320 319 319 317 316 316 315 314 313 314 313 313 312 313 312 312 312 311 311 311 311 311 311 312 311 311 310 309 309 309 308 309 306 305 304 304 303 302 302 301 301 301 300 300 300 300 300 301 301 302 302 302 302 302 301 300 300 300 299 299 300 299 299 298 299 300 298 297 297 298 297 297 296 296 297 297 298 298
323 322 322 321 320 320 319 319 318 316 315 314 314 314 313 313 313 313 312 312 312 312 312 311 311 310 310 310 310 311 310 310 310 309 309 309 308 307 307 305 304 303 302 302 301 301 300 300 299 299 299 298 298 299 299 300 301 302 301 301 301 300 300 299 299 299 298 298 298 298 298 298 298 297 296 297 297 296 295 296 296 296 297 297 298
321 320 320 319 319 318 318 317 315 315 315 314 313 313 312 312 312 311 312 312 311 312 311 311 310 309 309 309 309 309 309 308 308 308 308 308 307 307 307 305 304 303 303 302 302 301 299 299 299 298 298 297 297 297 297 298 299 301 301 301 300 300 299 299 299 299 302 298 298 298 298 298 297 296 295 295 295 294 295 296 295 296 296 297 298
319 319 318 317 317 318 317 315 315 315 314 313 312 312 312 311 310 311 311 311 311 311 311 310 309 308 308 308 308 308 308 307 307 307 306 306 306 305 305 305 303 302 302 301 300 300 300 298 298 298 297 297 296 296 296 296 297 299 300 300 300 300 300 299 298 298 298 298 298 298 298 298 297 295 294 294 294 294 295 295 295 296 296 297 297
318 318 318 317 317 316 315 315 315 314 314 313 312 312 310 310 310 310 310 311 311 310 310 309 308 308 308 308 307 307 307 307 307 307 307 306 305 304 304 303 304 302 301 300 300 299 300 298 298 298 297 297 296 295 294 295 296 297 299 299 299 299 299 299 298 298 298 298 298 299 298 298 297 296 294 294 294 294 295 295 297 297 297 297 297
318 317 316 315 315 314 314 314 314 314 314 313 312 311 310 309 309 309 310 310 310 310 309 308 308 307 307 307 306 306 306 306 306 306 305 305 305 304 304 304 303 301 301 300 300 299 299 298 298 297 297 297 295 294 293 293 294 295 298 299 299 298 298 298 298 298 298 297 298 298 298 298 298 296 295 294 294 294 295 295 297 297 297 297 296
316 316 315 314 313 313 313 313 314 314 312 310 310 310 310 309 309 309 309 309 310 309 308 307 307 306 306 306 306 305 305 305 305 304 304 304 304 303 304 303 303 302 301 300 300 299 298 297 297 296 296 296 295 294 294 293 293 294 296 297 298 298 298 298 297 297 297 297 297 298 298 298 300 301 299 297 297 297 296 295 296 296 297 296 296
315 314 314 314 313 313 313 313 313 312 311 311 309 309 309 309 308 309 309 309 309 308 307 306 306 306 305 305 305 305 304 304 303 303 303 303 303 303 303 302 302 301 300 300 299 298 297 296 296 295 295 295 294 294 295 294 295 294 294 297 299 298 298 297 297 296 296 296 297 296 300 303 301 300 298 296 295 296 298 297 296 296 297 296 296
314 314 313 313 313 313 313 312 312 311 311 310 309 309 309 308 308 308 308 308 308 307 306 306 305 305 305 304 303 303 303 303 302 302 302 303 303 303 303 302 302 300 299 299 298 297 296 295 294 294 293 294 293 294 293 292 292 295 296 294 297 297 297 297 296 295 295 296 296 296 296 300 300 299 297 295 294 294 294 295 296 298 298 297 296
314 313 313 313 312 312 312 311 310 310 310 309 308 308 307 307 307 307 307 308 307 306 305 305 305 304 304 303 303 303 303 302 302 302 303 303 303 302 302 302 302 301 300 299 297 296 296 295 294 293 292 293 292 294 292 293 292 293 295 295 297 298 298 296 296 295 295 295 295 295 296 297 297 299 297 293 294 295 294 294 295 295 295 295 295
313 312 312 312 312 312 311 310 310 310 310 309 309 307 307 307 307 307 307 306 305 305 305 304 304 304 303 303 302 302 302 301 302 302 302 302 302 301 301 301 301 301 300 299 297 297 295 295 293 292 292 292 291 293 292 293 293 293 293 297 298 298 298 297 296 295 294 294 293 295 295 295 295 300 299 292 291 292 294 295 296 297 297 297 294
313 312 312 312 312 311 311 310 310 310 310 310 309 308 307 308 307 307 306 305 305 304 304 304 303 303 303 302 302 301 301 301 301 301 301 301 301 300 300 301 301 301 299 298 297 296 295 295 294 292 291 291 291 293 292 292 293 293 293 296 300 299 298 297 296 295 294 293 293 293 293 293 292 293 293 292 291 290 290 292 294 295 295 296 296
312 312 312 311 310 310 310 310 310 310 309 309 309 308 308 307 306 305 305 305 304 304 303 302 302 302 302 301 301 301 301 301 301 301 301 300 300 299 300 300 300 299 299 297 296 295 295 295 293 292 291 291 292 292 292 292 292 294 295 297 298 299 298 297 296 295 294 294 293 293 292 291 292 292 295 293 291 290 290 292 292 293 294 294 295
312 311 310 310 310 309 309 309 310 309 308 309 308 308 307 307 306 306 304 304 303 302 302 302 301 301 301 301 301 300 300 300 300 300 300 299 298 298 298 299 299 298 298 298 298 297 294 293 292 291 291 290 291 292 292 292 293 294 296 299 298 297 297 296 296 295 295 294 294 292 292 291 291 291 295 292 292 292 290 291 291 292 293 293 294
312 311 310 311 311 310 310 310 309 309 308 307 307 307 305 305 305 305 303 303 302 301 301 301 301 301 301 301 300 300 300 299 299 299 298 298 298 298 298 298 297 297 297 297 297 297 297 295 293 292 290 290 291 292 292 292 292 293 295 296 296 296 295 295 295 295 294 295 296 295 293 291 292 292 294 291 291 293 290 290 290 291 292 292 292
310 310 310 310 311 311 311 309 308 307 306 305 305 304 304 304 304 304 303 301 301 300 300 300 300 300 300 300 300 300 299 299 298 298 298 298 298 298 298 299 297 297 296 296 296 295 295 294 292 291 292 291 290 293 292 292 292 293 295 294 293 293 293 293 293 294 295 294 295 301 303 294 292 293 292 291 291 293 290 290 290 290 290 290 291
310 310 309 309 310 310 309 309 308 306 305 305 305 304 304 303 303 302 302 301 301 300 300 300 300 300 300 300 300 299 299 298 298 298 298 298 298 298 299 299 297 296 296 296 296 294 293 293 293 293 301 293 291 293 292 291 292 292 294 293 293 291 291 291 293 292 292 293 293 296 299 297 295 294 291 291 291 292 290 290 290 290 289 289 291
310 310 310 310 310 309 308 307 306 305 305 305 305 304 303 302 301 302 301 301 301 300 300 300 300 299 299 299 300 299 299 299 298 298 298 298 299 299 298 298 297 296 295 295 295 294 292 292 293 293 295 292 292 291 292 292 292 292 293 294 293 291 291 291 292 295 294 292 292 293 295 293 292 292 291 290 291 291 291 291 290 289 289 289 291
309 309 308 310 310 309 307 306 306 305 304 304 304 302 301 300 299 299 299 299 299 299 299 299 299 299 299 299 299 299 299 298 298 298 298 299 298 297 297 297 297 297 296 295 294 294 293 293 293 293 292 293 294 291 292 292 292 292 291 292 290 291 289 290 291 292 292 292 292 292 293 294 292 291 291 290 291 291 292 293 290 289 289 291 292
309 308 309 309 309 308 307 306 306 305 304 303 303 301 300 299 299 297 297 298 299 298 299 298 299 299 299 299 299 299 299 300 299 299 298 297 298 299 298 297 296 296 296 296 295 295 294 293 292 293 292 291 296 296 292 292 291 292 291 291 291 290 290 291 291 292 291 291 291 291 292 294 291 290 290 291 291 291 291 293 290 290 291 290 293
307 308 309 308 307 306 306 305 305 304 304 303 302 300 300 299 297 296 298 298 298 298 298 298 298 299 299 299 298 298 299 301 299 298 298 297 298 298 298 298 297 296 296 295 295 296 295 294 293 292 291 291 291 293 294 293 292 291 291 291 291 291 291 293 291 290 290 290 290 291 293 294 291 290 291 291 291 291 292 290 290 290 290 290 292
308 309 308 307 306 306 305 305 305 304 303 303 301 299 298 297 296 297 298 298 298 298 298 298 298 298 298 299 299 299 299 299 298 298 297 297 297 298 298 298 297 297 295 295 295 296 294 294 293 291 292 291 291 291 293 292 292 291 291 290 291 291 291 291 292 291 291 290 290 290 291 290 290 291 291 291 291 291 290 290 290 290 290 291 291
307 307 306 306 306 305 305 304 304 303 302 301 301 299 297 296 296 297 297 297 298 298 298 297 297 298 298 298 298 298 298 298 298 297 297 297 297 297 297 297 297 296 295 294 293 295 293 292 292 292 291 291 291 291 290 292 292 291 291 290 290 291 291 291 292 292 291 291 290 290 290 291 290 291 291 291 291 291 290 290 290 290 292 288 289
307 306 306 306 306 305 303 302 301 301 301 301 300 299 297 296 297 298 297 298 298 297 297 297 297 297 297 298 298 298 297 297 297 297 297 296 297 297 296 296 295 295 295 295 292 292 292 292 291 290 290 290 290 288 288 288 292 292 291 290 290 291 292 292 292 291 291 290 290 290 291 291 292 292 292 290 290 291 290 290 290 291 287 287 288
305 306 305 305 304 302 301 300 299 300 300 300 299 298 297 297 297 298 298 298 298 297 297 296 296 296 296 297 296 296 296 296 296 296 297 297 295 293 294 293 292 292 292 291 292 292 292 291 290 290 289 289 288 286 286 286 287 287 288 289 289 290 292 291 291 290 290 290 291 292 291 290 291 291 290 290 290 290 289 289 288 287 287 287 288
306 305 304 303 302 301 299 299 298 299 299 299 298 297 297 298 298 298 298 298 298 297 296 296 295 295 295 296 296 293 295 294 294 294 293 293 293 293 291 290 290 291 291 291 291 290 289 290 289 289 289 288 286 285 285 285 285 286 286 286 287 288 287 286 287 288 288 290 290 291 291 290 289 289 288 288 287 288 287 286 287 286 286 287 290
304 304 303 302 301 300 299 299 298 298 298 298 298 298 298 298 298 299 299 298 297 295 296 295 295 295 295 295 295 294 292 291 291 291 290 290 291 290 289 287 287 288 292 293 292 290 290 288 288 288 288 288 286 285 286 289 286 288 286 285 286 286 287 286 289 289 289 289 289 288 287 287 287 285 286 286 287 287 286 287 287 286 285 286 286
304 303 303 301 300 299 299 298 298 299 299 298 298 298 299 299 299 299 298 297 296 295 294 294 295 295 295 295 294 293 293 291 290 290 289 289 288 290 289 290 288 289 290 291 290 289 290 288 288 287 287 285 284 286 289 288 288 289 289 289 289 289 288 288 289 289 289 285 285 283 285 284 285 285 284 284 284 284 285 285 285 286 284 285 285
302 301 301 300 299 299 299 298 299 299 299 299 298 298 298 299 299 299 298 296 295 295 294 294 295 295 295 295 294 293 292 291 290 289 288 287 287 288 288 289 289 289 289 288 288 288 289 291 290 286 287 289 289 289 287 288 289 289 289 289 289 289 289 288 288 286 283 282 282 283 285 284 283 285 284 284 284 284 284 283 284 283 283 284 284
Wind_Speed
7 6 7 9 11 9 10 11 10 9 8 8 9 8 10 10 10 8 5 7 8 7 5 6 7 6 5 6 6 3 3 4 5 4 4 3 2 3 2 4 4 4 5 2 4 5 5 5 5 6 6 6 6 6 5 5 6 5 4 3 4 4 4 4 4 3 3 4 4 5 6 5 6 5 4 3 4 6 5 4 5 4 5 4 5
10 9 8 8 9 9 9 10 11 13 8 7 9 9 8 8 9 7 5 6 6 7 7 6 4 5 6 6 6 5 4 5 5 4 4 4 3 3 2 0 2 5 5 6 6 7 6 6 7 7 7 6 6 6 7 7 8 8 7 7 5 5 5 6 7 5 3 4 7 7 5 5 5 1 1 2 4 6 5 4 4 4 5 4 3
10 12 11 11 11 11 10 10 9 10 10 7 6 8 8 8 8 6 6 5 6 7 7 7 3 5 5 5 6 4 4 3 4 4 5 5 2 3 3 2 7 7 7 8 8 8 8 7 7 7 7 7 7 7 7 8 7 8 8 7 7 5 4 4 8 8 6 6 5 2 5 7 6 4 4 8 8 6 4 4 5 4 6 5 5
12 12 11 12 13 12 11 11 11 10 8 7 7 8 7 7 7 7 6 5 6 5 6 5 5 5 6 6 5 4 5 3 4 4 3 2 3 5 6 8 9 9 9 9 8 8 8 8 6 6 6 6 6 6 6 7 7 7 7 7 6 6 6 5 7 8 7 7 6 3 4 4 6 3 9 8 4 4 4 5 4 6 5 3 3
13 11 7 9 11 12 12 11 11 11 8 8 7 6 5 7 6 8 6 6 6 6 8 7 7 6 7 7 6 8 6 4 3 3 3 6 7 8 9 10 10 10 9 9 8 7 7 7 6 6 6 6 5 7 6 6 6 5 7 6 6 5 6 4 6 8 8 7 6 5 4 1 1 6 10 5 2 7 5 4 5 6 6 4 4
10 10 10 7 7 9 11 12 12 10 10 7 7 6 6 6 6 5 5 5 5 6 8 7 7 8 7 7 7 6 6 5 5 6 7 7 8 7 9 9 10 9 9 9 8 7 6 6 6 6 6 7 6 6 6 7 8 8 7 5 6 6 4 5 6 6 6 7 7 5 3 5 8 8 6 7 6 4 3 4 7 7 7 7 6
10 10 10 9 8 8 9 10 11 11 9 9 7 7 8 7 5 4 5 6 4 5 6 7 7 6 7 7 7 7 7 3 3 7 8 7 7 8 7 8 9 9 8 8 7 7 6 6 6 6 6 6 6 6 6 6 5 5 6 7 6 7 8 7 7 7 5 6 7 6 6 5 6 6 6 8 10 4 3 7 7 9 10 8 7
12 12 11 9 7 7 9 10 9 10 10 9 8 7 9 7 5 4 5 6 5 6 6 6 8 6 7 7 7 7 7 7 8 7 7 7 8 8 7 7 8 8 8 8 7 6 6 6 5 6 6 6 6 6 6 5 6 6 7 8 8 8 8 7 6 8 8 7 8 8 7 6 6 5 5 6 5 9 13 6 2 8 9 6 6
14 12 12 11 9 7 8 9 8 9 9 10 9 8 7 6 5 5 5 5 5 5 5 4 4 6 7 7 8 6 7 7 8 8 8 7 8 6 8 8 8 7 7 6 6 6 5 5 5 6 7 6 7 6 6 6 7 7 8 9 8 7 7 6 6 7 7 7 7 8 6 7 5 4 6 7 6 7 7 10 14 11 6 2 9
14 14 13 12 10 10 8 8 9 8 7 8 8 8 7 6 7 6 4 3 3 4 5 5 5 6 7 7 10 8 7 8 7 8 7 7 8 8 8 7 6 6 6 7 6 5 5 5 5 6 6 6 5 5 5 6 6 6 7 7 7 7 6 6 6 5 6 6 7 6 7 7 6 5 6 8 5 3 6 9 10 12 15 12 8
14 14 13 12 12 11 10 11 10 9 8 9 8 8 7 7 7 6 4 3 3 4 4 6 5 5 6 7 8 10 9 9 9 8 7 7 8 7 7 6 6 6 6 6 5 5 5 5 6 5 5 4 5 4 5 6 5 6 7 7 6 5 5 5 6 5 5 6 7 6 6 7 6 7 8 8 8 7 9 8 8 7 9 13 11
14 14 14 15 12 11 10 10 11 10 10 10 9 8 7 7 7 8 5 5 3 3 3 6 7 8 8 9 9 9 8 8 9 9 8 9 7 8 7 7 6 6 5 5 5 5 5 5 4 4 4 4 5 4 5 6 6 6 6 6 6 5 4 3 4 4 5 4 4 5 5 5 5 6 7 7 8 9 8 9 9 10 9 7 9
14 13 14 13 13 13 12 12 11 11 11 11 10 9 8 8 8 9 6 4 5 6 6 7 8 8 9 9 8 8 9 9 9 8 7 8 7 9 7 6 6 6 5 5 3 4 4 4 4 5 5 5 5 5 5 6 7 7 6 5 6 6 6 4 5 4 4 4 4 4 6 6 7 7 7 8 8 8 8 9 9 9 9 11 10
13 13 13 13 13 12 12 12 11 11 11 11 11 10 9 9 9 10 9 6 6 6 7 8 8 8 9 8 8 9 9 9 8 8 8 8 8 8 7 6 6 5 5 4 3 3 3 4 4 5 5 5 5 6 6 7 7 6 5 5 5 5 5 5 5 3 4 4 6 7 8 9 9 9 9 8 8 9 9 10 10 9 9 10 9
13 13 13 13 13 14 12 11 11 11 12 12 10 9 10 10 10 11 10 7 7 6 7 7 7 8 8 8 8 8 9 9 8 7 8 8 8 8 7 6 6 5 6 3 4 4 3 4 4 4 4 5 5 7 7 7 6 6 5 5 5 4 5 6 7 6 8 8 9 8 8 9 8 8 8 8 8 9 9 10 10 12 11 9 9
13 14 14 14 14 13 11 11 11 11 13 11 10 11 11 11 10 10 9 7 7 7 6 7 7 8 8 9 8 9 8 8 8 8 8 8 8 8 7 6 5 5 4 4 2 3 3 4 4 6 6 6 6 6 6 6 5 5 4 5 5 4 5 6 6 7 9 8 7 8 9 9 8 8 8 8 8 8 9 8 8 8 10 12 10
14 14 14 15 14 12 12 12 11 12 11 10 11 11 12 11 11 10 8 7 6 6 6 6 7 8 7 8 8 8 8 9 9 10 10 8 7 7 6 6 5 4 3 3 3 4 4 5 6 6 6 6 5 4 4 4 4 3 4 4 5 5 4 6 6 8 8 8 8 10 9 8 8 8 8 8 8 8 7 7 6 8 9 8 10
15 14 14 14 14 14 13 12 12 12 11 12 12 10 9 9 11 11 10 9 6 6 6 6 8 8 9 9 9 9 9 9 8 9 8 8 5 5 5 5 4 3 3 3 4 6 6 7 6 6 6 7 6 5 4 4 3 4 4 6 6 6 8 8 8 9 9 8 9 10 9 8 8 9 9 9 8 8 7 7 7 7 6 8 8
14 14 14 13 13 14 14 13 13 12 11 11 11 10 10 9 9 9 10 8 7 6 6 6 6 6 6 8 9 8 8 8 7 7 6 6 7 6 6 5 3 3 4 6 6 6 7 7 6 7 7 7 7 6 6 5 4 6 7 8 8 8 9 9 8 9 8 9 9 9 8 7 7 7 7 7 8 8 8 7 8 7 7 7 9
14 14 14 14 14 15 15 15 15 14 13 11 11 10 11 9 10 9 8 8 8 7 5 6 6 6 7 7 6 8 8 8 7 7 7 7 6 6 5 4 4 5 6 7 7 7 7 8 8 8 7 7 7 6 6 6 6 6 6 7 8 9 9 9 8 8 7 8 8 8 8 7 7 6 7 7 7 8 8 7 8 8 8 8 8
14 14 15 15 15 15 15 13 13 13 11 10 11 12 10 9 9 9 10 9 8 6 5 7 7 7 6 6 8 8 9 8 9 8 8 7 6 5 4 4 5 6 6 7 7 8 8 9 9 8 7 6 7 7 7 6 6 6 7 7 8 8 8 7 7 8 7 7 7 9 8 9 8 7 7 6 7 8 8 7 8 8 9 9 10
15 14 15 15 14 15 14 14 13 13 12 12 11 11 10 9 9 9 9 7 6 5 7 7 5 6 6 7 8 8 8 8 9 9 8 6 5 5 4 6 7 7 8 9 9 8 8 9 8 8 7 7 7 8 8 6 6 7 7 6 7 6 7 7 7 8 7 7 7 8 8 7 7 7 8 8 8 8 9 9 9 9 9 9 8
15 15 15 15 14 14 15 16 15 14 13 13 11 10 10 10 10 8 7 6 6 6 7 7 8 8 8 7 8 7 8 8 8 7 7 7 7 6 6 7 8 8 8 9 9 10 9 9 8 8 7 7 8 7 7 7 6 6 7 7 6 7 8 9 9 9 8 6 6 6 8 7 7 8 8 8 9 10 11 10 11 8 8 8 9
15 14 14 15 14 14 14 14 13 13 13 12 11 10 10 9 9 7 8 8 7 7 8 8 8 8 8 8 8 7 8 7 7 5 6 5 6 7 7 8 8 8 10 9 10 10 9 8 8 8 8 7 7 7 7 6 7 6 7 7 7 8 8 8 8 7 7 6 6 8 8 9 8 9 9 9 10 9 8 8 8 8 8 10 9
16 16 15 16 15 15 13 13 13 13 12 11 10 9 10 10 7 9 9 7 5 7 9 8 8 9 9 8 7 7 7 7 7 7 7 7 7 7 6 7 7 8 8 9 9 9 9 8 8 7 7 7 6 6 6 7 6 6 5 7 7 7 7 7 7 6 6 6 6 8 8 8 9 10 10 10 9 9 7 6 7 7 7 8 8
17 16 16 17 16 14 12 13 12 12 12 11 10 10 9 9 10 8 9 7 6 7 8 8 7 8 9 8 7 7 7 7 7 7 8 8 8 7 7 7 8 9 9 9 9 8 8 8 7 6 6 6 5 5 6 5 6 6 5 5 6 6 6 6 5 6 6 6 6 7 8 9 10 11 10 9 8 8 8 8 7 7 7 7 8
18 17 15 14 14 15 14 14 13 12 12 11 10 8 9 11 10 9 7 7 8 8 8 8 8 9 8 8 7 6 6 7 7 7 7 8 8 7 8 8 8 9 9 9 9 9 8 7 6 6 5 4 5 5 6 7 6 6 5 5 7 6 5 4 5 6 6 7 6 6 7 9 9 10 9 8 9 9 8 10 8 10 9 10 7
15 15 15 15 15 14 14 14 14 13 11 10 8 9 11 11 11 9 8 8 7 8 8 8 8 8 8 7 6 6 6 6 6 7 7 7 7 7 7 7 8 9 9 9 9 9 7 6 6 5 4 4 5 6 6 6 5 5 4 4 6 5 5 5 6 7 7 7 6 6 5 8 8 8 8 7 6 7 7 8 8 8 9 9 10
17 17 16 16 15 14 14 13 12 12 12 11 10 10 10 10 9 8 8 9 8 8 8 7 8 8 7 6 6 6 6 7 8 8 8 8 8 8 8 8 9 9 9 10 9 8 7 6 6 5 6 6 7 6 5 4 4 5 3 3 4 5 5 6 6 7 7 6 5 5 5 7 10 13 14 11 10 8 6 6 8 6 8 8 10
18 16 13 15 16 15 14 13 12 13 12 10 9 11 11 11 11 10 10 10 9 8 8 9 9 7 7 6 7 6 7 7 8 8 7 7 7 8 8 9 10 10 9 9 9 8 7 6 6 6 6 6 5 4 5 6 4 2 2 2 2 5 5 6 7 7 6 6 4 4 6 14 11 11 12 13 13 14 13 9 6 5 6 7 9
16 18 17 14 14 15 16 14 14 14 14 13 13 13 12 12 10 10 10 9 9 9 9 9 9 7 7 7 7 8 8 8 7 7 7 8 8 7 8 8 8 9 10 9 8 8 7 6 6 6 5 4 4 3 5 6 7 7 3 2 1 5 5 6 6 7 6 5 4 4 4 7 7 8 9 13 12 13 12 13 12 10 7 5 7
16 15 17 18 16 16 16 15 16 15 14 12 13 13 12 11 10 9 8 9 9 9 10 9 8 7 7 8 8 8 8 8 7 8 9 8 8 8 8 7 8 9 9 9 9 8 7 6 6 6 5 4 4 8 10 10 9 8 5 1 0 5 5 5 5 6 5 4 4 3 4 4 5 7 6 8 10 12 13 13 13 11 10 9 5
18 17 17 18 18 17 14 15 16 15 13 11 11 13 12 11 11 8 9 10 10 10 10 9 8 8 8 8 9 9 8 8 8 8 7 8 8 8 8 8 8 8 8 8 7 7 6 6 6 6 5 5 4 9 10 11 11 10 8 3 1 6 6 6 5 5 5 4 4 4 4 4 4 10 7 6 7 9 12 14 14 12 10 11 10
16 18 19 18 16 13 16 18 17 15 15 11 9 10 10 10 10 9 11 11 11 10 9 9 8 8 9 9 8 9 9 8 8 8 9 9 8 8 7 6 7 8 9 8 8 8 6 5 5 5 5 5 5 7 10 11 12 11 10 6 2 6 6 6 5 4 4 3 2 4 5 6 6 5 4 7 8 8 8 9 9 8 8 9 10
17 17 15 15 17 18 14 13 13 12 11 13 13 12 11 9 9 11 11 11 11 10 9 8 9 9 9 8 9 9 9 9 9 10 9 9 8 8 8 6 7 8 8 9 8 7 6 5 4 4 5 5 4 9 12 13 13 12 12 8 4 5 6 5 4 4 3 2 1 4 4 5 6 7 7 9 7 8 8 8 8 9 9 8 7
16 17 15 15 17 21 20 15 10 12 13 12 11 11 12 11 9 9 9 10 10 10 10 9 9 9 9 9 10 9 9 9 10 9 8 8 7 8 8 7 7 7 7 7 6 7 7 6 4 4 5 5 6 11 13 14 14 13 13 7 7 7 5 3 4 2 2 0 1 4 5 6 6 7 12 15 11 8 7 8 9 9 9 8 7
14 15 16 16 16 15 16 15 14 14 13 11 11 12 11 12 13 10 9 9 9 10 10 9 9 9 10 9 9 10 10 9 9 9 8 8 8 8 8 7 8 8 8 8 7 6 5 5 4 4 4 4 5 10 14 15 15 14 10 7 7 7 6 5 1 2 1 0 2 4 4 5 6 8 13 16 14 10 7 8 8 9 9 8 9
15 12 12 13 14 14 12 13 16 13 8 10 12 12 14 13 11 11 10 6 8 8 9 10 9 9 9 9 9 9 9 9 8 9 8 8 7 7 8 8 8 8 8 7 7 6 4 4 4 4 4 5 5 8 12 13 14 13 9 7 6 6 6 6 4 1 1 2 4 10 8 5 7 8 14 16 16 9 8 7 7 9 9 9 10
17 18 15 13 13 14 14 13 13 12 11 13 15 16 14 13 11 11 13 10 6 8 9 9 9 9 9 8 8 9 9 8 8 7 8 9 8 8 8 8 8 8 8 7 7 6 5 4 4 3 5 5 4 5 8 10 11 11 8 6 6 6 6 6 5 4 4 4 5 6 11 10 8 12 16 15 16 10 7 6 6 6 9 10 11
15 15 17 15 14 13 13 14 14 12 12 15 14 13 12 11 9 10 12 13 9 7 7 7 8 8 8 8 8 9 8 8 8 7 7 7 6 7 8 9 8 8 7 7 6 6 5 4 3 3 3 4 4 4 5 9 10 11 10 6 6 7 5 5 5 5 6 6 6 7 9 12 14 16 15 15 15 13 7 6 6 7 8 11 9
15 15 15 14 14 15 16 15 13 14 13 13 13 13 12 11 10 10 12 12 9 7 8 9 9 9 9 9 8 9 9 7 6 7 7 6 7 7 8 8 8 7 7 7 7 6 5 4 3 3 3 2 3 5 5 9 9 9 9 7 4 4 3 3 4 5 6 6 7 7 7 11 15 16 14 15 14 14 11 7 8 6 6 9 10
15 16 14 13 13 12 13 13 13 14 14 13 14 14 12 12 11 10 9 10 11 10 10 10 10 10 10 9 9 8 7 7 6 7 7 7 5 6 7 8 7 7 8 8 6 6 6 4 3 3 3 3 3 7 5 9 11 9 7 6 5 3 2 3 5 4 6 7 6 6 7 10 15 14 14 14 14 13 14 7 11 12 15 15 12
17 16 15 16 14 15 15 15 13 13 12 12 14 13 11 10 11 10 10 11 11 10 10 10 10 10 9 9 8 8 7 6 6 6 7 7 7 8 7 8 7 6 6 6 6 6 6 6 4 3 4 4 4 5 9 7 10 10 9 6 6 6 9 5 4 4 5 7 6 6 8 12 14 12 12 14 13 14 11 9 14 14 15 14 12
14 16 16 16 16 15 15 15 14 13 13 13 13 12 12 13 12 10 11 11 11 11 10 10 8 8 8 8 8 7 6 6 7 7 6 7 7 7 7 7 7 7 7 7 6 6 6 7 6 5 3 3 3 5 8 10 7 10 9 9 10 11 10 6 4 3 6 6 7 6 9 12 11 11 13 13 13 11 11 14 13 14 15 11 9
17 16 16 15 16 18 16 14 13 15 12 11 11 14 15 15 11 11 12 12 12 10 9 9 9 9 9 8 7 7 7 6 6 7 7 8 7 7 7 6 6 5 5 6 5 5 6 7 7 6 4 2 2 6 5 7 9 9 10 10 11 11 12 11 7 5 5 7 9 12 13 12 9 10 12 12 9 10 14 14 13 13 12 7 9
15 15 16 15 15 15 15 16 15 14 12 12 12 14 16 13 11 11 12 12 11 10 10 10 10 9 9 9 9 7 7 7 6 7 7 7 8 7 7 6 6 6 6 6 5 6 7 7 7 7 6 5 5 5 4 3 4 5 6 9 10 9 10 10 8 6 10 13 14 13 12 11 7 7 8 7 6 7 12 15 13 10 7 7 7
18 17 15 15 16 15 15 15 14 12 12 12 13 12 13 13 12 12 12 11 10 11 11 10 11 9 8 9 9 8 7 7 6 7 7 6 5 4 5 3 4 6 5 5 5 5 6 7 7 7 6 5 4 3 2 2 3 4 4 4 6 6 8 9 8 8 9 8 11 10 8 8 6 8 9 8 7 8 8 9 8 7 7 7 7
17 16 15 15 15 15 15 14 14 12 12 12 12 12 13 13 12 12 10 11 12 12 12 11 10 9 9 9 9 11 10 7 4 4 7 7 6 6 7 6 4 5 8 7 7 6 6 7 7 7 6 5 3 1 1 1 2 3 4 4 3 3 4 5 6 7 7 7 6 8 7 4 6 6 7 6 7 6 6 6 7 7 7 8 8
18 17 17 16 15 15 16 15 14 12 12 12 12 13 14 15 13 11 13 13 12 12 11 10 9 9 9 9 8 6 6 7 7 7 6 4 7 8 8 5 2 0 6 8 7 6 5 4 7 7 7 4 2 1 1 4 1 1 1 3 5 5 5 5 4 6 7 6 5 6 6 6 6 5 7 7 6 7 7 7 7 7 7 8 8
15 14 15 15 15 17 17 16 13 13 13 13 13 13 14 13 12 12 14 13 12 12 10 10 10 9 9 8 7 8 8 8 8 8 9 8 10 9 5 8 5 6 9 8 8 5 6 7 7 3 3 5 4 3 5 5 4 2 2 3 5 6 6 6 7 8 4 3 4 4 4 4 5 7 7 6 7 6 7 8 7 7 7 7 7
16 16 16 16 16 16 15 15 14 14 14 14 14 14 13 12 13 13 13 13 12 11 10 10 10 9 10 8 8 8 8 8 8 9 9 9 7 9 11 10 9 8 10 12 12 9 7 7 7 4 1 4 7 6 6 4 1 3 4 5 6 7 7 5 6 5 3 3 3 4 5 4 4 5 5 5 5 6 6 7 7 7 7 7 7
Wind_Direction
145 142 136 136 131 140 134 120 115 114 132 146 138 136 137 139 134 124 127 135 131 127 116 120 123 125 112 110 114 125 102 94 89 83 80 98 108 138 133 104 113 197 234 191 43 30 25 6 11 14 17 20 17 11 358 6 10 9 351 358 350 343 323 326 327 320 335 315 295 285 294 288 280 281 268 281 277 268 264 257 259 261 251 242 238
138 133 129 126 131 131 122 117 118 128 144 150 145 142 136 133 124 126 140 146 130 124 126 120 142 144 130 135 133 132 127 98 90 87 87 71 73 62 53 70 126 89 63 50 46 34 27 27 28 24 24 18 16 15 17 14 13 19 16 11 2 1 345 349 337 342 358 343 328 326 312 313 304 29 91 360 300 285 278 268 266 255 260 255 245
148 141 140 139 141 136 131 126 124 127 141 144 137 135 136 128 121 136 158 131 117 127 126 131 133 129 129 148 135 114 80 87 105 91 102 103 134 140 156 137 81 72 59 52 42 32 31 30 28 25 24 18 17 20 22 23 21 24 20 20 356 2 347 343 354 9 342 317 295 333 335 347 338 355 359 341 316 296 289 276 269 258 257 243 213
149 141 147 150 151 144 138 133 129 129 132 136 143 139 140 135 135 153 157 131 121 130 121 118 119 114 108 109 93 93 112 98 75 75 97 156 116 120 91 72 67 61 53 49 47 41 36 33 27 27 23 24 30 31 27 26 20 22 18 18 19 12 0 343 8 6 3 350 0 342 286 325 332 354 330 315 306 352 332 294 296 283 273 253 228
138 132 131 147 147 145 140 131 126 130 137 144 144 138 143 139 147 161 148 129 126 132 122 124 118 103 102 102 105 100 84 91 107 99 109 92 78 58 56 57 56 56 50 48 47 44 37 34 31 22 21 18 30 34 30 21 23 21 19 17 21 17 2 349 0 9 2 32 10 345 335 345 11 318 324 284 360 339 320 331 317 304 286 272 254
127 134 142 149 148 136 129 128 128 133 140 146 141 131 132 136 150 157 117 122 134 136 136 141 141 137 135 125 117 111 107 104 113 116 100 87 79 73 61 57 59 55 49 44 43 41 34 29 30 27 26 25 32 35 29 24 21 21 13 11 14 15 11 12 5 5 355 27 20 27 347 318 331 328 325 325 340 256 314 348 327 346 329 303 279
125 130 138 147 142 136 133 130 131 139 142 140 142 130 129 147 156 135 123 127 138 136 137 137 136 144 141 131 122 123 119 102 89 97 100 93 89 80 75 67 63 60 50 51 42 35 31 25 31 31 32 34 33 32 26 23 15 15 10 17 17 18 23 28 16 0 352 21 3 8 0 358 353 348 350 332 337 339 28 345 356 355 342 324 305
139 139 141 147 139 140 140 134 140 145 143 140 137 130 135 151 151 122 111 136 140 137 141 148 139 136 126 119 117 117 114 113 105 101 98 98 88 86 79 69 64 64 56 47 42 34 33 30 33 32 30 28 32 24 17 16 17 4 20 34 34 32 29 28 15 14 16 359 357 6 4 3 1 3 22 6 317 327 325 340 338 344 331 325 344
140 139 143 146 140 135 137 142 142 140 143 139 133 128 135 141 119 102 124 145 143 139 137 137 126 135 131 129 121 115 114 110 106 103 103 102 99 92 83 77 67 60 61 56 47 38 32 29 32 35 28 26 31 25 20 24 22 26 35 42 38 33 30 26 32 20 18 12 3 8 4 5 359 2 9 3 354 324 317 338 333 333 321 326 346
143 143 143 146 145 147 148 135 138 143 126 116 118 126 131 128 122 132 142 145 136 119 117 117 120 122 120 130 125 126 121 114 112 112 107 102 95 90 87 85 84 74 61 49 38 30 28 26 36 41 40 33 32 27 26 20 19 36 47 50 43 40 26 32 36 25 25 15 17 6 9 356 6 8 15 1 349 11 339 331 338 338 335 330 340
151 148 147 143 143 143 140 141 138 127 121 121 125 133 127 125 132 131 132 117 117 127 132 126 123 121 125 127 124 125 124 121 114 107 108 100 99 95 94 98 89 83 73 53 44 37 33 39 42 41 41 34 29 29 29 22 22 42 50 47 39 37 26 33 30 33 31 23 17 10 7 6 6 3 2 3 358 347 340 335 331 334 319 316 328
144 144 139 137 138 132 133 137 137 133 131 130 134 133 127 129 132 127 128 128 128 132 128 113 108 105 101 101 104 107 112 110 105 104 105 105 105 104 93 79 69 69 67 60 43 41 47 42 40 38 33 29 27 32 29 30 36 48 50 41 26 14 10 35 36 42 35 28 26 7 354 348 357 9 7 3 3 352 342 331 329 329 317 313 320
145 142 140 143 142 141 146 143 140 142 139 138 135 132 130 130 132 127 116 108 109 112 109 106 101 98 98 98 97 97 96 99 99 100 91 86 81 81 88 90 82 67 50 49 32 57 65 52 39 33 30 27 35 36 27 33 42 49 49 35 20 15 4 11 30 38 38 32 12 347 356 3 14 13 19 19 12 358 351 342 341 341 329 326 332
144 143 143 141 140 146 148 145 145 141 137 136 136 136 135 130 124 115 110 106 105 100 98 94 93 96 94 93 91 91 90 87 87 89 88 86 89 90 90 91 88 82 65 50 48 50 64 61 50 44 42 37 40 38 36 38 46 53 44 29 13 5 11 23 18 17 23 15 12 14 29 28 26 21 21 22 14 8 4 359 344 338 336 327 323
142 145 144 140 144 147 144 141 139 138 137 138 141 131 124 123 120 118 116 113 108 103 98 95 96 95 93 91 93 92 91 89 87 90 91 90 87 93 88 82 82 84 79 67 47 47 59 63 62 58 47 42 44 48 44 45 45 47 33 21 10 12 19 18 14 19 25 26 35 38 41 33 25 21 19 18 19 20 12 3 357 344 338 333 327
143 142 139 144 147 142 136 137 137 138 138 140 131 128 125 123 120 117 116 115 107 106 100 102 98 98 100 101 97 95 94 93 91 86 83 82 82 87 92 94 93 92 98 92 72 68 69 62 51 53 46 40 47 57 55 53 48 49 31 19 22 7 23 23 24 37 35 31 37 45 43 33 20 23 19 15 21 21 15 6 358 353 342 331 332
146 146 142 145 142 136 137 137 138 140 141 137 131 131 129 126 122 118 113 105 103 100 103 102 102 97 96 98 99 96 94 94 95 90 89 88 92 95 98 101 100 100 103 117 93 58 62 67 58 57 50 40 45 57 62 63 59 47 32 19 11 360 20 27 36 42 33 29 35 44 43 32 18 19 19 15 15 17 14 0 357 354 346 331 331
145 141 141 141 138 138 139 139 140 140 136 130 130 127 121 122 123 121 119 117 115 108 101 101 100 98 100 100 98 99 100 96 92 91 91 99 104 96 91 88 100 113 113 90 82 70 59 57 59 55 49 41 36 29 38 47 49 32 20 18 20 32 39 33 36 41 31 28 40 45 38 34 18 22 17 13 14 10 4 358 352 350 343 337 329
144 143 143 141 141 141 140 139 139 134 128 127 122 116 116 114 114 116 119 119 117 111 104 95 91 98 101 106 108 107 106 108 109 108 108 104 96 96 96 101 90 82 76 70 68 70 65 55 54 52 47 41 34 31 30 33 35 40 34 38 37 45 48 45 38 40 36 35 42 43 37 34 16 27 15 16 13 7 3 354 350 350 343 338 332
146 146 145 143 141 141 141 141 140 136 132 130 120 116 115 115 114 111 107 108 109 111 107 103 99 100 105 99 94 102 105 110 110 107 103 101 99 100 104 101 102 83 81 78 72 68 65 60 53 51 46 38 31 24 24 27 33 41 44 47 47 53 51 47 45 41 39 36 39 37 35 27 17 22 17 14 11 6 1 354 353 352 349 346 340
149 148 146 145 143 140 140 136 132 128 127 123 120 122 120 118 116 113 116 119 125 125 113 113 112 112 107 102 106 104 103 99 93 94 100 103 109 113 118 116 86 79 78 74 73 69 64 62 58 51 45 36 30 21 13 20 41 45 46 53 54 57 59 55 51 47 42 39 39 37 31 23 13 20 12 9 6 2 358 358 356 355 354 351 347
146 146 145 144 141 140 135 132 131 131 130 125 126 123 124 123 122 121 123 131 130 123 118 114 110 109 106 101 95 96 100 98 98 102 104 107 108 105 100 90 89 82 78 72 68 65 66 64 60 51 42 34 27 24 15 12 36 49 50 54 56 51 55 54 51 47 39 37 37 42 28 20 14 15 8 5 2 1 359 358 0 358 356 350 343
146 144 144 140 140 140 137 137 138 136 129 127 126 126 125 123 122 126 126 121 114 105 103 107 107 104 96 94 95 95 99 102 104 110 116 113 109 100 90 89 85 81 75 73 70 68 65 66 63 52 42 34 29 26 17 22 14 54 59 58 52 54 57 54 51 47 40 33 35 34 26 20 15 11 8 3 7 7 2 2 2 356 344 333 328
139 140 140 138 139 137 137 138 135 133 132 131 128 124 122 121 124 123 118 115 104 105 109 105 103 95 98 97 94 96 99 105 113 120 120 119 112 104 99 93 93 88 84 77 72 68 66 65 65 57 45 39 31 23 21 19 25 34 62 59 56 60 60 55 53 50 41 30 31 33 29 20 14 12 8 10 12 8 6 3 350 338 332 329 324
141 141 142 138 140 141 142 137 135 134 132 129 129 129 129 131 126 120 120 119 113 114 113 110 105 106 105 103 102 103 107 109 111 108 104 101 97 95 90 88 84 81 80 83 79 73 70 64 64 60 53 44 33 25 23 22 23 28 38 62 65 65 62 59 54 48 42 34 34 42 30 18 18 16 15 16 7 4 358 350 340 333 330 325 321
141 141 143 142 143 141 137 137 136 134 133 131 133 139 135 126 123 122 125 129 122 116 115 116 115 114 113 111 111 109 109 111 109 106 104 102 100 97 95 90 90 87 84 82 81 76 70 69 63 61 58 49 36 29 29 25 25 24 25 59 68 67 65 62 55 47 41 34 43 43 31 21 24 24 16 8 2 357 352 349 332 328 320 308 307
145 144 143 138 141 142 138 139 136 134 136 138 143 139 125 125 124 125 127 125 121 118 120 118 116 116 116 117 117 117 116 113 110 109 108 106 106 106 102 101 97 94 91 86 82 80 74 71 67 61 56 47 38 32 30 23 22 19 22 63 72 70 67 60 52 48 41 40 43 41 33 25 29 25 18 8 356 352 352 348 348 350 348 346 324
139 140 142 143 141 136 137 138 138 139 140 138 135 127 129 128 130 134 132 127 126 126 125 122 119 118 118 120 120 120 117 111 105 101 99 99 96 95 96 96 93 89 86 86 83 83 77 71 68 64 53 49 40 36 27 21 18 13 15 46 84 82 76 65 56 46 41 40 38 31 32 28 28 29 22 9 2 351 343 345 346 347 352 354 358
144 146 145 142 142 139 135 136 138 138 135 131 125 126 129 130 133 138 135 135 136 133 130 124 120 121 125 124 118 113 110 106 103 98 96 93 92 90 88 90 92 92 87 83 80 77 77 72 62 55 47 39 38 27 18 10 7 12 8 19 90 93 84 74 60 51 41 39 40 23 19 29 24 27 22 13 3 356 353 343 335 338 352 355 358
147 145 143 142 142 141 140 144 144 140 130 122 123 134 138 141 146 147 142 143 141 139 129 125 124 125 126 123 117 112 108 106 104 103 100 97 93 89 89 89 92 92 91 87 82 76 71 67 60 50 47 40 32 17 7 8 17 2 355 350 97 104 94 84 72 61 47 37 31 19 9 15 9 18 18 11 5 357 351 348 319 332 350 353 355
150 146 143 142 145 146 147 150 145 137 138 142 139 143 142 144 149 147 143 143 137 130 125 126 127 131 128 122 116 114 111 110 110 104 100 97 94 93 91 91 93 96 95 95 89 83 76 66 60 53 43 40 25 5 358 37 30 23 23 7 53 104 94 88 82 74 64 51 21 7 351 353 349 358 4 3 355 355 345 341 335 342 339 344 353
148 145 143 146 151 155 156 149 141 143 151 147 144 146 145 146 149 148 144 137 129 128 128 130 134 134 130 126 123 120 117 112 107 106 106 103 99 95 93 91 93 98 101 98 94 90 84 72 64 57 47 29 16 359 14 25 31 24 18 340 268 110 100 92 90 80 77 71 40 9 344 338 339 351 3 355 346 342 343 336 327 331 330 333 332
148 148 154 155 155 154 146 140 142 148 153 153 143 144 147 150 149 146 134 132 130 130 131 136 140 137 134 129 128 125 121 117 114 113 107 103 100 97 96 93 93 101 103 99 98 95 89 79 64 57 45 28 24 2 17 21 19 18 15 23 13 104 106 104 97 91 81 70 55 24 349 337 338 347 352 351 346 338 335 332 325 323 323 324 322
153 159 160 155 148 145 149 153 156 154 152 138 126 137 142 147 146 139 136 135 133 135 139 143 142 140 137 135 132 127 123 121 116 110 108 107 106 106 105 102 98 93 98 99 94 89 86 78 71 64 52 37 31 1 26 26 22 17 16 22 96 102 111 110 108 102 98 98 73 46 16 351 341 344 345 357 344 340 335 330 331 328 322 316 311
161 161 160 155 146 139 145 147 148 149 142 141 146 148 148 144 140 135 136 138 139 142 145 145 143 143 140 135 130 128 125 122 119 118 118 119 120 118 113 111 105 104 107 110 110 101 92 85 76 64 59 45 21 19 35 32 28 27 27 28 56 83 108 113 111 117 128 127 63 40 25 1 348 346 346 4 350 339 333 331 329 330 326 318 312
163 157 155 151 149 149 153 156 151 146 149 150 145 142 138 140 128 127 135 141 144 144 144 145 144 142 137 133 129 125 123 123 124 125 124 123 119 117 117 113 102 91 87 90 92 100 99 93 86 75 67 47 27 28 38 36 36 38 44 38 45 50 46 76 115 126 129 160 41 21 22 360 355 346 346 353 358 343 338 336 334 330 329 325 322
154 152 152 155 154 149 144 143 148 151 153 152 143 139 136 130 133 149 140 145 144 143 143 140 138 134 132 131 128 126 125 125 125 124 124 122 119 115 111 106 98 94 91 88 95 96 108 106 92 79 73 56 38 27 38 39 38 39 46 37 36 34 34 28 2 141 138 50 344 2 4 3 352 346 347 348 355 353 345 343 339 335 331 332 336
145 145 149 150 146 141 143 147 146 143 137 136 133 127 131 137 145 137 134 127 132 137 137 136 135 132 131 131 129 127 127 126 125 127 128 126 122 117 116 112 109 106 99 101 97 89 91 113 115 100 89 76 50 32 41 40 40 39 51 50 38 38 24 22 355 329 85 359 339 2 353 1 352 345 344 346 348 360 348 344 344 339 339 344 344
151 150 149 148 146 142 140 139 135 130 136 133 131 133 136 141 140 134 124 124 145 138 138 136 135 133 129 126 125 123 125 126 127 130 130 131 134 134 128 118 118 115 118 116 110 111 114 114 137 141 98 83 65 40 42 46 44 40 44 47 45 42 29 5 358 343 3 4 353 343 349 350 350 342 345 346 345 358 348 347 343 343 348 349 343
150 149 148 147 142 139 143 144 139 135 135 132 132 132 133 133 135 135 133 135 155 152 132 125 121 121 119 117 118 120 123 126 129 126 126 132 133 123 126 127 129 131 132 132 131 128 126 139 138 118 106 102 80 51 37 39 41 41 38 46 45 43 15 358 359 1 11 354 351 347 343 343 346 342 343 344 342 351 358 343 1 0 353 349 329
150 151 148 145 150 151 148 145 139 138 136 133 132 132 136 140 142 142 143 142 142 128 119 115 117 116 117 116 117 123 125 126 130 132 130 124 126 128 125 126 132 135 135 137 141 146 144 153 137 121 110 94 103 80 48 40 32 39 41 47 40 43 10 12 9 6 7 2 346 342 330 338 343 339 340 343 346 350 358 0 8 358 345 335 344
147 147 148 144 144 141 137 136 139 140 139 138 138 141 146 150 151 146 139 128 125 124 121 120 119 121 121 122 124 126 127 132 133 125 126 131 131 119 122 126 126 131 140 151 157 158 155 151 140 119 103 89 82 89 71 42 35 31 40 44 49 32 18 33 28 16 1 355 342 333 327 332 337 335 336 349 351 353 359 12 357 357 355 0 357
150 152 151 146 145 147 146 143 142 142 143 144 147 149 150 144 136 137 131 125 124 126 126 126 126 126 128 130 133 133 135 133 131 130 128 124 119 121 125 127 134 142 149 158 164 163 153 151 141 134 121 106 83 72 67 55 41 42 31 30 42 39 25 41 56 34 5 340 332 335 323 331 334 331 343 356 353 354 5 354 357 1 0 358 355
150 149 150 150 147 148 147 149 149 150 152 155 154 145 140 134 136 138 128 127 127 131 131 132 133 132 132 135 136 137 134 135 137 133 124 119 120 125 130 138 151 153 163 169 179 167 147 147 157 160 164 133 91 73 55 49 41 32 30 24 23 29 34 22 39 32 1 343 337 332 319 323 330 337 357 357 352 357 2 357 1 360 3 360 358
153 154 152 154 151 150 151 151 152 154 155 150 143 139 137 136 143 137 136 136 138 139 138 139 139 137 138 138 133 135 138 137 141 134 130 131 133 139 145 163 155 159 161 168 174 151 142 144 143 150 157 150 91 70 53 37 35 24 20 16 15 20 19 25 15 350 357 337 324 328 333 335 326 359 2 358 353 351 359 2 2 3 4 0 2
148 151 156 154 152 151 151 150 152 151 146 143 141 143 142 144 144 142 143 144 144 142 141 142 141 142 143 141 137 138 138 140 141 141 142 147 148 155 159 172 165 171 175 173 161 145 136 131 132 130 123 103 71 62 45 20 21 18 10 4 6 11 12 9 5 351 341 339 337 335 332 333 343 8 5 4 352 348 353 1 6 7 6 4 1
156 156 153 152 154 153 152 149 146 146 143 142 142 143 142 145 148 149 150 148 144 142 141 141 145 146 144 142 143 145 147 149 148 156 155 146 141 123 117 121 146 157 148 132 121 129 128 129 132 127 116 104 89 77 37 6 5 11 4 358 1 359 5 6 2 350 345 340 325 324 316 300 352 8 5 360 4 354 2 2 3 2 5 7 0
154 156 155 151 154 154 150 149 148 150 147 146 146 146 149 151 152 155 149 143 143 145 146 149 149 146 145 148 147 156 151 143 134 120 103 94 88 104 99 94 98 110 111 101 96 88 98 106 110 117 116 107 112 91 14 24 346 1 351 353 356 3 9 3 341 334 325 319 312 314 333 5 11 11 359 3 2 4 5 2 5 1 360 4 2
156 161 160 158 155 152 152 151 153 151 148 149 149 149 153 156 157 151 146 144 145 146 148 150 147 144 148 151 147 123 112 112 101 89 69 85 125 119 110 85 22 255 129 124 109 104 105 111 111 123 121 123 141 161 227 209 203 186 357 338 342 336 332 324 307 312 316 325 343 349 5 360 15 13 3 360 357 2 2 0 8 9 359 1 359
156 156 157 155 156 154 155 156 156 154 152 153 153 154 156 157 150 148 146 146 148 150 151 151 149 149 151 143 126 124 118 114 112 109 101 70 41 59 93 121 102 66 81 102 115 129 143 123 104 115 149 148 180 204 197 198 221 226 268 267 266 280 283 288 300 303 259 293 323 339 355 2 7 17 7 1 358 4 4 2 360 5 2 3 359
158 156 159 158 158 157 155 158 160 157 155 153 155 157 158 154 149 149 149 151 152 150 149 148 149 153 153 137 132 126 127 117 117 116 108 105 90 51 45 62 93 102 95 89 91 106 112 117 126 113 51 137 153 163 179 201 295 310 317 313 314 310 307 305 314 346 25 15 334 338 351 353 2 13 12 356 357 11 4 6 358 352 356 0 360